,,PA_Meas_PMT16A,,PR_Meas_QMR101_102,,RH_Meas_QMH101,,SR_Meas_QMS101,,TA_Meas_QMH101,,GenWind,,GenWind,
time,status,PA,status,PR,status,RH,status,SR,status,TA,status,DirAvg,status,SpdAvg,
2010-05-05, 00:00:04,VALID,915.684,VALID,0,VALID,97.229,VALID,0,VALID,21.9249,VALID,337,VALID,0.0503906,
2010-05-05, 00:01:04,VALID,915.659,VALID,0,VALID,97.1986,VALID,0,VALID,21.9444,VALID,337,VALID,0,
2010-05-05, 00:02:04,VALID,915.644,VALID,0,VALID,97.2214,VALID,0,VALID,21.964,VALID,337,VALID,0.434375,
2010-05-05, 00:03:04,VALID,915.625,VALID,0,VALID,97.2138,VALID,0,VALID,22.0047,VALID,337,VALID,0.644922,
2010-05-05, 00:04:04,VALID,915.701,VALID,0,VALID,97.229,VALID,0,VALID,22.0225,VALID,337,VALID,0.541797,
2010-05-05, 00:05:04,VALID,915.687,VALID,0,VALID,97.2214,VALID,0,VALID,22.0615,VALID,337,VALID,0.636328,
2010-05-05, 00:06:04,VALID,915.649,VALID,0,VALID,97.2214,VALID,0,VALID,22.0615,VALID,337,VALID,0.634375,
2010-05-05, 00:07:04,VALID,915.682,VALID,0,VALID,97.229,VALID,0,VALID,22.0827,VALID,337,VALID,0.496484,
2010-05-05, 00:08:04,VALID,915.642,VALID,0,VALID,97.2443,VALID,0,VALID,22.1201,VALID,337,VALID,0.205078,
2010-05-05, 00:09:04,VALID,915.637,VALID,0,VALID,97.2214,VALID,0,VALID,22.1608,VALID,337,VALID,0.498437,
2010-05-05, 00:10:04,VALID,915.617,VALID,0,VALID,97.2367,VALID,0,VALID,22.1201,VALID,337,VALID,0.221094,
2010-05-05, 00:11:04,VALID,915.589,VALID,0,VALID,97.2214,VALID,0,VALID,22.1201,VALID,337,VALID,0.441016,
2010-05-05, 00:12:04,VALID,915.571,VALID,0,VALID,97.2138,VALID,0,VALID,22.1201,VALID,337,VALID,0.828906,
2010-05-05, 00:13:04,VALID,915.583,VALID,0,VALID,97.2138,VALID,0,VALID,22.1022,VALID,337,VALID,0.586328,
2010-05-05, 00:14:04,VALID,915.574,VALID,0,VALID,97.229,VALID,0,VALID,22.1005,VALID,337,VALID,0.302344,
2010-05-05, 00:15:04,VALID,915.554,VALID,0,VALID,97.2062,VALID,0,VALID,22.1217,VALID,337,VALID,0.00195313,
2010-05-05, 00:16:04,VALID,915.573,VALID,0,VALID,97.2138,VALID,0,VALID,22.0437,VALID,337,VALID,0.398828,
2010-05-05, 00:17:04,VALID,915.56,VALID,0,VALID,97.229,VALID,0,VALID,21.9851,VALID,337,VALID,0.761328,
2010-05-05, 00:18:04,VALID,915.558,VALID,0,VALID,97.229,VALID,0,VALID,21.9656,VALID,337,VALID,0.274609,
2010-05-05, 00:19:04,VALID,915.536,VALID,0,VALID,97.2138,VALID,0,VALID,21.9835,VALID,337,VALID,0.257031,
2010-05-05, 00:20:04,VALID,915.52,VALID,0,VALID,97.1986,VALID,0,VALID,21.9656,VALID,337,VALID,0.294531,
2010-05-05, 00:21:04,VALID,915.51,VALID,0,VALID,97.2214,VALID,0,VALID,21.9054,VALID,337,VALID,0.2375,
2010-05-05, 00:22:04,VALID,915.517,VALID,0,VALID,97.2062,VALID,0,VALID,21.9071,VALID,337,VALID,0.0453125,
2010-05-05, 00:23:04,VALID,915.499,VALID,0,VALID,97.2138,VALID,0,VALID,21.8681,VALID,337,VALID,0.280859,
2010-05-05, 00:24:04,VALID,915.495,VALID,0,VALID,97.229,VALID,0,VALID,21.8485,VALID,337,VALID,0.483203,
2010-05-05, 00:25:04,VALID,915.488,VALID,0,VALID,97.2138,VALID,0,VALID,21.8274,VALID,337,VALID,0.286719,
2010-05-05, 00:26:04,VALID,915.451,VALID,0,VALID,97.2138,VALID,0,VALID,21.8485,VALID,337,VALID,0.107031,
2010-05-05, 00:27:04,VALID,915.414,VALID,0,VALID,97.2443,VALID,0,VALID,21.8274,VALID,337,VALID,0.125,
2010-05-05, 00:28:04,VALID,915.382,VALID,0,VALID,97.2367,VALID,0,VALID,21.8095,VALID,337,VALID,0,
2010-05-05, 00:29:04,VALID,915.403,VALID,0,VALID,97.229,VALID,0,VALID,21.7688,VALID,337,VALID,0.0414063,
2010-05-05, 00:30:04,VALID,915.415,VALID,0,VALID,97.2214,VALID,0,VALID,21.751,VALID,337,VALID,0.0710938,
2010-05-05, 00:31:04,VALID,915.405,VALID,0,VALID,97.229,VALID,0,VALID,21.7493,VALID,337,VALID,0.2,
2010-05-05, 00:32:04,VALID,915.393,VALID,0,VALID,97.2367,VALID,0,VALID,21.79,VALID,337,VALID,0.310547,
2010-05-05, 00:33:04,VALID,915.387,VALID,0,VALID,97.2519,VALID,0,VALID,21.8095,VALID,337,VALID,0.423828,
2010-05-05, 00:34:04,VALID,915.367,VALID,0,VALID,97.2367,VALID,0,VALID,21.8079,VALID,337,VALID,0.446484,
2010-05-05, 00:35:04,VALID,915.356,VALID,0,VALID,97.2443,VALID,0,VALID,21.8274,VALID,337,VALID,0.553516,
2010-05-05, 00:36:04,VALID,915.344,VALID,0,VALID,97.2367,VALID,0,VALID,21.8274,VALID,337,VALID,0.508203,
2010-05-05, 00:37:04,VALID,915.343,VALID,0,VALID,97.2443,VALID,0,VALID,21.829,VALID,337,VALID,0.365625,
2010-05-05, 00:38:04,VALID,915.336,VALID,0,VALID,97.2367,VALID,0,VALID,21.7883,VALID,337,VALID,0.4125,
2010-05-05, 00:39:04,VALID,915.31,VALID,0,VALID,97.229,VALID,0,VALID,21.8095,VALID,337,VALID,0.476172,
2010-05-05, 00:40:04,VALID,915.308,VALID,0,VALID,97.229,VALID,0,VALID,21.8095,VALID,337,VALID,0.460156,
2010-05-05, 00:41:04,VALID,915.279,VALID,0,VALID,97.2443,VALID,0,VALID,21.7883,VALID,337,VALID,0.503906,
2010-05-05, 00:42:04,VALID,915.283,VALID,0,VALID,97.2443,VALID,0,VALID,21.7298,VALID,337,VALID,0.529688,
2010-05-05, 00:43:04,VALID,915.253,VALID,0,VALID,97.2367,VALID,0,VALID,21.6908,VALID,337,VALID,0.348437,
2010-05-05, 00:44:04,VALID,915.226,VALID,0,VALID,97.2443,VALID,0,VALID,21.6713,VALID,337,VALID,0.212891,
2010-05-05, 00:45:04,VALID,915.217,VALID,0,VALID,97.2138,VALID,0,VALID,21.712,VALID,337,VALID,0,
2010-05-05, 00:46:04,VALID,915.224,VALID,0,VALID,97.2367,VALID,0,VALID,21.6908,VALID,337,VALID,0,
2010-05-05, 00:47:04,VALID,915.183,VALID,0,VALID,97.229,VALID,0,VALID,21.7103,VALID,337,VALID,0.153906,
2010-05-05, 00:48:04,VALID,915.172,VALID,0,VALID,97.229,VALID,0,VALID,21.7315,VALID,337,VALID,0.457031,
2010-05-05, 00:49:04,VALID,915.165,VALID,0,VALID,97.2672,VALID,0,VALID,21.6908,VALID,337,VALID,0.284375,
2010-05-05, 00:50:04,VALID,915.135,VALID,0,VALID,97.2443,VALID,0,VALID,21.7315,VALID,337,VALID,0.571875,
2010-05-05, 00:51:04,VALID,915.109,VALID,0,VALID,97.2519,VALID,0,VALID,21.7315,VALID,337,VALID,0.301953,
2010-05-05, 00:52:04,VALID,915.114,VALID,0,VALID,97.2443,VALID,0,VALID,21.751,VALID,337,VALID,0.255859,
2010-05-05, 00:53:04,VALID,915.103,VALID,0,VALID,97.2672,VALID,0,VALID,21.79,VALID,337,VALID,0.4625,
2010-05-05, 00:54:04,VALID,915.095,VALID,0,VALID,97.2443,VALID,0,VALID,21.7688,VALID,337,VALID,0.291016,
2010-05-05, 00:55:04,VALID,915.08,VALID,0,VALID,97.2519,VALID,0,VALID,21.79,VALID,337,VALID,0.401563,
2010-05-05, 00:56:04,VALID,915.069,VALID,0,VALID,97.2519,VALID,0,VALID,21.6908,VALID,337,VALID,0.319922,
2010-05-05, 00:57:04,VALID,915.067,VALID,0,VALID,97.2519,VALID,0,VALID,21.6518,VALID,337,VALID,0.279297,
2010-05-05, 00:58:04,VALID,915.052,VALID,0,VALID,97.2519,VALID,0,VALID,21.6534,VALID,337,VALID,0,
2010-05-05, 00:59:04,VALID,915.063,VALID,0,VALID,97.229,VALID,0,VALID,21.6128,VALID,337,VALID,0,
2010-05-05, 01:00:04,VALID,915.053,VALID,0,VALID,97.2672,VALID,0,VALID,21.6323,VALID,337,VALID,0.368359,
2010-05-05, 01:01:04,VALID,915.045,VALID,0,VALID,97.2519,VALID,0,VALID,21.6128,VALID,337,VALID,0.508203,
2010-05-05, 01:02:04,VALID,915.05,VALID,0,VALID,97.2443,VALID,0,VALID,21.6339,VALID,337,VALID,0.666406,
2010-05-05, 01:03:04,VALID,915.053,VALID,0,VALID,97.2367,VALID,0,VALID,21.6144,VALID,337,VALID,0.494531,
2010-05-05, 01:04:04,VALID,915.048,VALID,0,VALID,97.2595,VALID,0,VALID,21.5737,VALID,337,VALID,0.666797,
2010-05-05, 01:05:04,VALID,915.045,VALID,0,VALID,97.2748,VALID,0,VALID,21.5559,VALID,337,VALID,0.667969,
2010-05-05, 01:06:04,VALID,915.031,VALID,0,VALID,97.2672,VALID,0,VALID,21.5152,VALID,337,VALID,0.815234,
2010-05-05, 01:07:04,VALID,914.988,VALID,0,VALID,97.2748,VALID,0,VALID,21.5363,VALID,337,VALID,0.758594,
2010-05-05, 01:08:04,VALID,914.934,VALID,0,VALID,97.2595,VALID,0,VALID,21.5152,VALID,337,VALID,0.715234,
2010-05-05, 01:09:04,VALID,914.893,VALID,0,VALID,97.2595,VALID,0,VALID,21.5168,VALID,337,VALID,0.670313,
2010-05-05, 01:10:04,VALID,914.892,VALID,0,VALID,97.2595,VALID,0,VALID,21.5152,VALID,337,VALID,0.307422,
2010-05-05, 01:11:04,VALID,914.864,VALID,0,VALID,97.29,VALID,0,VALID,21.5363,VALID,337,VALID,0.483594,
2010-05-05, 01:12:04,VALID,914.853,VALID,0,VALID,97.29,VALID,0,VALID,21.4957,VALID,337,VALID,0.347656,
2010-05-05, 01:13:04,VALID,914.809,VALID,0,VALID,97.2977,VALID,0,VALID,21.5152,VALID,337,VALID,0.549219,
2010-05-05, 01:14:04,VALID,914.845,VALID,0,VALID,97.29,VALID,0,VALID,21.4973,VALID,337,VALID,0.684375,
2010-05-05, 01:15:04,VALID,914.805,VALID,0,VALID,97.29,VALID,0,VALID,21.4973,VALID,337,VALID,0.753516,
2010-05-05, 01:16:04,VALID,914.752,VALID,0,VALID,97.29,VALID,0,VALID,21.4762,VALID,337,VALID,0.55,
2010-05-05, 01:17:04,VALID,914.775,VALID,0,VALID,97.2824,VALID,0,VALID,21.4973,VALID,337,VALID,0.564453,
2010-05-05, 01:18:04,VALID,914.757,VALID,0,VALID,97.29,VALID,0,VALID,21.4778,VALID,337,VALID,0.43125,
2010-05-05, 01:19:04,VALID,914.756,VALID,0,VALID,97.3129,VALID,0.107441,VALID,21.4762,VALID,337,VALID,0.394141,
2010-05-05, 01:20:04,VALID,914.768,VALID,0,VALID,97.3129,VALID,0,VALID,21.4762,VALID,337,VALID,0.369531,
2010-05-05, 01:21:04,VALID,914.782,VALID,0,VALID,97.3053,VALID,0,VALID,21.4973,VALID,337,VALID,0.679688,
2010-05-05, 01:22:04,VALID,914.785,VALID,0,VALID,97.3053,VALID,0,VALID,21.4762,VALID,337,VALID,0.362109,
2010-05-05, 01:23:04,VALID,914.761,VALID,0,VALID,97.29,VALID,0,VALID,21.5168,VALID,337,VALID,0.660547,
2010-05-05, 01:24:04,VALID,914.736,VALID,0,VALID,97.29,VALID,0,VALID,21.4957,VALID,337,VALID,0.0382813,
2010-05-05, 01:25:04,VALID,914.711,VALID,0,VALID,97.3205,VALID,0,VALID,21.4957,VALID,337,VALID,0.0402344,
2010-05-05, 01:26:04,VALID,914.708,VALID,0,VALID,97.29,VALID,0,VALID,21.5152,VALID,337,VALID,0,
2010-05-05, 01:27:04,VALID,914.692,VALID,0,VALID,97.3053,VALID,0,VALID,21.4957,VALID,337,VALID,0,
2010-05-05, 01:28:04,VALID,914.706,VALID,0,VALID,97.2977,VALID,0,VALID,21.4762,VALID,337,VALID,0.405859,
2010-05-05, 01:29:04,VALID,914.706,VALID,0,VALID,97.2977,VALID,0,VALID,21.5168,VALID,337,VALID,0.360938,
2010-05-05, 01:30:04,VALID,914.737,VALID,0,VALID,97.3205,VALID,0,VALID,21.4762,VALID,337,VALID,0.0640625,
2010-05-05, 01:31:04,VALID,914.747,VALID,0,VALID,97.3205,VALID,0,VALID,21.4973,VALID,337,VALID,0,
2010-05-05, 01:32:04,VALID,914.768,VALID,0,VALID,97.3129,VALID,0,VALID,21.4778,VALID,337,VALID,0,
2010-05-05, 01:33:04,VALID,914.786,VALID,0,VALID,97.3053,VALID,0,VALID,21.4762,VALID,337,VALID,0,
2010-05-05, 01:34:04,VALID,914.789,VALID,0,VALID,97.3053,VALID,0,VALID,21.5168,VALID,337,VALID,0,
2010-05-05, 01:35:04,VALID,914.782,VALID,0,VALID,97.2977,VALID,0,VALID,21.5152,VALID,337,VALID,0.00273437,
2010-05-05, 01:36:04,VALID,914.776,VALID,0,VALID,97.3205,VALID,0,VALID,21.5152,VALID,337,VALID,0.0179687,
2010-05-05, 01:37:04,VALID,914.732,VALID,0,VALID,97.2977,VALID,0,VALID,21.5559,VALID,337,VALID,0.0574219,
2010-05-05, 01:38:04,VALID,914.742,VALID,0,VALID,97.3129,VALID,0,VALID,21.5754,VALID,337,VALID,0.00078125,
2010-05-05, 01:39:04,VALID,914.682,VALID,0,VALID,97.3129,VALID,0,VALID,21.5542,VALID,337,VALID,0,
2010-05-05, 01:40:04,VALID,914.704,VALID,0,VALID,97.3205,VALID,0,VALID,21.5542,VALID,337,VALID,0,
2010-05-05, 01:41:04,VALID,914.663,VALID,0,VALID,97.3205,VALID,0,VALID,21.5754,VALID,337,VALID,0,
2010-05-05, 01:42:05,VALID,914.663,VALID,0,VALID,97.3129,VALID,0,VALID,21.5347,VALID,337,VALID,0.548437,
2010-05-05, 01:43:05,VALID,914.628,VALID,0,VALID,97.3205,VALID,0,VALID,21.4973,VALID,337,VALID,0.446875,
2010-05-05, 01:44:05,VALID,914.673,VALID,0,VALID,97.3129,VALID,0,VALID,21.4583,VALID,337,VALID,0.473828,
2010-05-05, 01:45:05,VALID,914.672,VALID,0,VALID,97.3358,VALID,0,VALID,21.4177,VALID,337,VALID,0.497656,
2010-05-05, 01:46:05,VALID,914.689,VALID,0,VALID,97.3434,VALID,0,VALID,21.3998,VALID,337,VALID,0.4375,
2010-05-05, 01:47:05,VALID,914.639,VALID,0,VALID,97.3281,VALID,0,VALID,21.4193,VALID,337,VALID,0.177344,
2010-05-05, 01:48:05,VALID,914.666,VALID,0,VALID,97.3434,VALID,0,VALID,21.4193,VALID,337,VALID,0.476172,
2010-05-05, 01:49:05,VALID,914.631,VALID,0,VALID,97.3281,VALID,0,VALID,21.4388,VALID,337,VALID,0.614844,
2010-05-05, 01:50:05,VALID,914.648,VALID,0,VALID,97.3281,VALID,0,VALID,21.4177,VALID,337,VALID,0.489844,
2010-05-05, 01:51:05,VALID,914.609,VALID,0,VALID,97.3434,VALID,0,VALID,21.4177,VALID,337,VALID,0.388672,
2010-05-05, 01:52:05,VALID,914.584,VALID,0,VALID,97.3205,VALID,0,VALID,21.4583,VALID,337,VALID,0.573828,
2010-05-05, 01:53:05,VALID,914.575,VALID,0,VALID,97.3358,VALID,0,VALID,21.4567,VALID,337,VALID,0.280859,
2010-05-05, 01:54:05,VALID,914.568,VALID,0,VALID,97.3434,VALID,0,VALID,21.4762,VALID,337,VALID,0.298828,
2010-05-05, 01:55:05,VALID,914.552,VALID,0,VALID,97.3586,VALID,0,VALID,21.4567,VALID,337,VALID,0.334766,
2010-05-05, 01:56:05,VALID,914.504,VALID,0,VALID,97.3281,VALID,0,VALID,21.4372,VALID,337,VALID,0.276953,
2010-05-05, 01:57:05,VALID,914.499,VALID,0,VALID,97.3358,VALID,0,VALID,21.4388,VALID,337,VALID,0.130078,
2010-05-05, 01:58:05,VALID,914.471,VALID,0,VALID,97.3434,VALID,0,VALID,21.4388,VALID,337,VALID,0,
2010-05-05, 01:59:05,VALID,914.464,VALID,0,VALID,97.3358,VALID,0,VALID,21.4177,VALID,337,VALID,0,
2010-05-05, 02:00:05,VALID,914.444,VALID,0,VALID,97.3434,VALID,0,VALID,21.4177,VALID,337,VALID,0,
2010-05-05, 02:01:05,VALID,914.459,VALID,0,VALID,97.3586,VALID,0,VALID,21.4177,VALID,337,VALID,0,
2010-05-05, 02:02:05,VALID,914.463,VALID,0,VALID,97.3358,VALID,0,VALID,21.4372,VALID,337,VALID,0,
2010-05-05, 02:03:05,VALID,914.498,VALID,0,VALID,97.3358,VALID,0,VALID,21.4567,VALID,337,VALID,0.137109,
2010-05-05, 02:04:05,VALID,914.487,VALID,0,VALID,97.3434,VALID,0,VALID,21.4567,VALID,337,VALID,0,
2010-05-05, 02:05:05,VALID,914.475,VALID,0,VALID,97.3586,VALID,0,VALID,21.4762,VALID,337,VALID,0.13125,
2010-05-05, 02:06:05,VALID,914.511,VALID,0,VALID,97.3358,VALID,0,VALID,21.4762,VALID,337,VALID,0,
2010-05-05, 02:07:05,VALID,914.534,VALID,0,VALID,97.3663,VALID,0,VALID,21.5168,VALID,337,VALID,0,
2010-05-05, 02:08:05,VALID,914.568,VALID,0,VALID,97.3586,VALID,0,VALID,21.5363,VALID,337,VALID,0,
2010-05-05, 02:09:05,VALID,914.578,VALID,0,VALID,97.3434,VALID,0,VALID,21.5152,VALID,337,VALID,0.162109,
2010-05-05, 02:10:05,VALID,914.582,VALID,0,VALID,97.3434,VALID,0,VALID,21.5363,VALID,337,VALID,0.175781,
2010-05-05, 02:11:05,VALID,914.572,VALID,0,VALID,97.3358,VALID,0,VALID,21.5152,VALID,337,VALID,0.351953,
2010-05-05, 02:12:05,VALID,914.593,VALID,0,VALID,97.3358,VALID,0,VALID,21.4957,VALID,337,VALID,0.358984,
2010-05-05, 02:13:05,VALID,914.6,VALID,0,VALID,97.351,VALID,0,VALID,21.5363,VALID,337,VALID,0.0367187,
2010-05-05, 02:14:05,VALID,914.595,VALID,0,VALID,97.3281,VALID,0,VALID,21.5347,VALID,337,VALID,0.153125,
2010-05-05, 02:15:05,VALID,914.577,VALID,0,VALID,97.3434,VALID,0,VALID,21.5542,VALID,337,VALID,0,
2010-05-05, 02:16:05,VALID,914.589,VALID,0,VALID,97.3434,VALID,0,VALID,21.5949,VALID,337,VALID,0,
2010-05-05, 02:17:05,VALID,914.593,VALID,0,VALID,97.351,VALID,0,VALID,21.5737,VALID,337,VALID,0,
2010-05-05, 02:18:05,VALID,914.584,VALID,0,VALID,97.3586,VALID,0,VALID,21.5949,VALID,337,VALID,0,
2010-05-05, 02:19:05,VALID,914.542,VALID,0,VALID,97.3205,VALID,0,VALID,21.5737,VALID,337,VALID,0.0675781,
2010-05-05, 02:20:05,VALID,914.551,VALID,0,VALID,97.3434,VALID,0,VALID,21.5949,VALID,337,VALID,0.246875,
2010-05-05, 02:21:05,VALID,914.565,VALID,0,VALID,97.3434,VALID,0,VALID,21.5737,VALID,337,VALID,0.59375,
2010-05-05, 02:22:05,VALID,914.58,VALID,0,VALID,97.3281,VALID,0,VALID,21.5949,VALID,337,VALID,0.441406,
2010-05-05, 02:23:05,VALID,914.602,VALID,0,VALID,97.351,VALID,0,VALID,21.5542,VALID,337,VALID,0.663672,
2010-05-05, 02:24:05,VALID,914.587,VALID,0,VALID,97.3434,VALID,0,VALID,21.5559,VALID,337,VALID,0.501562,
2010-05-05, 02:25:05,VALID,914.595,VALID,0,VALID,97.351,VALID,0,VALID,21.5363,VALID,337,VALID,0.371484,
2010-05-05, 02:26:05,VALID,914.622,VALID,0,VALID,97.3281,VALID,0,VALID,21.5152,VALID,337,VALID,0,
2010-05-05, 02:27:05,VALID,914.597,VALID,0,VALID,97.3434,VALID,0.107441,VALID,21.5363,VALID,337,VALID,0.348437,
2010-05-05, 02:28:05,VALID,914.559,VALID,0,VALID,97.3739,VALID,0,VALID,21.4957,VALID,337,VALID,0.389062,
2010-05-05, 02:29:05,VALID,914.558,VALID,0,VALID,97.351,VALID,0,VALID,21.5152,VALID,337,VALID,0.273828,
2010-05-05, 02:30:05,VALID,914.569,VALID,0,VALID,97.3586,VALID,0.107441,VALID,21.4941,VALID,337,VALID,0.446094,
2010-05-05, 02:31:05,VALID,914.56,VALID,0,VALID,97.351,VALID,0.107441,VALID,21.455,VALID,337,VALID,0.464063,
2010-05-05, 02:32:05,VALID,914.524,VALID,0,VALID,97.3586,VALID,0.107441,VALID,21.455,VALID,337,VALID,0.206641,
2010-05-05, 02:33:05,VALID,914.499,VALID,0,VALID,97.3663,VALID,0.107441,VALID,21.4746,VALID,337,VALID,0.254687,
2010-05-05, 02:34:05,VALID,914.486,VALID,0,VALID,97.351,VALID,0.107441,VALID,21.4957,VALID,337,VALID,0.450391,
2010-05-05, 02:35:05,VALID,914.464,VALID,0,VALID,97.3586,VALID,0.107441,VALID,21.4355,VALID,337,VALID,0.629687,
2010-05-05, 02:36:05,VALID,914.471,VALID,0,VALID,97.3586,VALID,0.107441,VALID,21.4355,VALID,337,VALID,0.517187,
2010-05-05, 02:37:05,VALID,914.458,VALID,0,VALID,97.351,VALID,0.214882,VALID,21.4355,VALID,337,VALID,0.395703,
2010-05-05, 02:38:05,VALID,914.489,VALID,0,VALID,97.3663,VALID,0.107441,VALID,21.4355,VALID,337,VALID,0.227344,
2010-05-05, 02:39:05,VALID,914.462,VALID,0,VALID,97.3586,VALID,0.107441,VALID,21.4355,VALID,337,VALID,0,
2010-05-05, 02:40:05,VALID,914.459,VALID,0,VALID,97.351,VALID,0.107441,VALID,21.455,VALID,337,VALID,0.669531,
2010-05-05, 02:41:05,VALID,914.447,VALID,0,VALID,97.3586,VALID,0.107441,VALID,21.416,VALID,337,VALID,0.686328,
2010-05-05, 02:42:05,VALID,914.432,VALID,0,VALID,97.3663,VALID,0.107441,VALID,21.416,VALID,337,VALID,0.511719,
2010-05-05, 02:43:05,VALID,914.39,VALID,0,VALID,97.3815,VALID,0.107441,VALID,21.3965,VALID,337,VALID,0.511328,
2010-05-05, 02:44:05,VALID,914.407,VALID,0,VALID,97.3663,VALID,0.107441,VALID,21.4177,VALID,337,VALID,0.372266,
2010-05-05, 02:45:05,VALID,914.409,VALID,0,VALID,97.3663,VALID,0,VALID,21.3981,VALID,337,VALID,0.695703,
2010-05-05, 02:46:05,VALID,914.431,VALID,0,VALID,97.3586,VALID,0,VALID,21.3786,VALID,337,VALID,0.785937,
2010-05-05, 02:47:05,VALID,914.449,VALID,0,VALID,97.3663,VALID,0,VALID,21.3591,VALID,337,VALID,0.773047,
2010-05-05, 02:48:05,VALID,914.437,VALID,0,VALID,97.3739,VALID,0,VALID,21.3803,VALID,337,VALID,0.588672,
2010-05-05, 02:49:05,VALID,914.473,VALID,0,VALID,97.3663,VALID,0,VALID,21.3591,VALID,337,VALID,0.285547,
2010-05-05, 02:50:05,VALID,914.473,VALID,0,VALID,97.351,VALID,0,VALID,21.3803,VALID,337,VALID,0.163672,
2010-05-05, 02:51:05,VALID,914.519,VALID,0,VALID,97.3815,VALID,0,VALID,21.3803,VALID,337,VALID,0.185156,
2010-05-05, 02:52:05,VALID,914.502,VALID,0,VALID,97.3815,VALID,0,VALID,21.3981,VALID,337,VALID,0.235156,
2010-05-05, 02:53:05,VALID,914.524,VALID,0,VALID,97.3739,VALID,0,VALID,21.3786,VALID,337,VALID,0,
2010-05-05, 02:54:05,VALID,914.556,VALID,0,VALID,97.3586,VALID,0,VALID,21.3981,VALID,337,VALID,0.00117188,
2010-05-05, 02:55:05,VALID,914.582,VALID,0,VALID,97.3815,VALID,0,VALID,21.3981,VALID,337,VALID,0.227344,
2010-05-05, 02:56:05,VALID,914.546,VALID,0,VALID,97.3663,VALID,0,VALID,21.3981,VALID,337,VALID,0.193359,
2010-05-05, 02:57:05,VALID,914.565,VALID,0,VALID,97.3739,VALID,0,VALID,21.3998,VALID,337,VALID,0.0480469,
2010-05-05, 02:58:05,VALID,914.519,VALID,0,VALID,97.3815,VALID,0,VALID,21.3591,VALID,337,VALID,0.279297,
2010-05-05, 02:59:05,VALID,914.533,VALID,0,VALID,97.3891,VALID,0,VALID,21.3998,VALID,337,VALID,0.222656,
2010-05-05, 03:00:05,VALID,914.54,VALID,0,VALID,97.3891,VALID,0,VALID,21.3981,VALID,337,VALID,0.279297,
2010-05-05, 03:01:05,VALID,914.523,VALID,0,VALID,97.3891,VALID,0,VALID,21.3998,VALID,337,VALID,0,
2010-05-05, 03:02:05,VALID,914.474,VALID,0,VALID,97.3739,VALID,0,VALID,21.3786,VALID,337,VALID,0,
2010-05-05, 03:03:05,VALID,914.517,VALID,0,VALID,97.3739,VALID,0,VALID,21.3786,VALID,337,VALID,0.000390625,
2010-05-05, 03:04:05,VALID,914.531,VALID,0,VALID,97.3815,VALID,0,VALID,21.3786,VALID,337,VALID,0.208203,
2010-05-05, 03:05:05,VALID,914.543,VALID,0,VALID,97.3968,VALID,0,VALID,21.3786,VALID,337,VALID,0.114844,
2010-05-05, 03:06:05,VALID,914.56,VALID,0,VALID,97.3891,VALID,0,VALID,21.3786,VALID,337,VALID,0,
2010-05-05, 03:07:05,VALID,914.562,VALID,0,VALID,97.3739,VALID,0,VALID,21.3981,VALID,337,VALID,0,
2010-05-05, 03:08:05,VALID,914.642,VALID,0,VALID,97.4044,VALID,0,VALID,21.4193,VALID,337,VALID,0.296875,
2010-05-05, 03:09:05,VALID,914.652,VALID,0,VALID,97.3815,VALID,0,VALID,21.4388,VALID,337,VALID,0.574609,
2010-05-05, 03:10:05,VALID,914.693,VALID,0,VALID,97.3891,VALID,0,VALID,21.3786,VALID,337,VALID,0.757422,
2010-05-05, 03:11:05,VALID,914.702,VALID,0,VALID,97.3968,VALID,0,VALID,21.3608,VALID,337,VALID,0.629297,
2010-05-05, 03:12:05,VALID,914.696,VALID,0,VALID,97.3815,VALID,0,VALID,21.2811,VALID,337,VALID,0.347266,
2010-05-05, 03:13:05,VALID,914.708,VALID,0,VALID,97.4044,VALID,0,VALID,21.2616,VALID,337,VALID,0.0964844,
2010-05-05, 03:14:05,VALID,914.683,VALID,0,VALID,97.3968,VALID,0,VALID,21.2632,VALID,337,VALID,0.128125,
2010-05-05, 03:15:05,VALID,914.669,VALID,0,VALID,97.4044,VALID,0,VALID,21.2827,VALID,337,VALID,0.373047,
2010-05-05, 03:16:05,VALID,914.615,VALID,0,VALID,97.3891,VALID,0,VALID,21.2811,VALID,337,VALID,0.391797,
2010-05-05, 03:17:05,VALID,914.585,VALID,0,VALID,97.3968,VALID,0,VALID,21.2811,VALID,337,VALID,0.372656,
2010-05-05, 03:18:05,VALID,914.565,VALID,0,VALID,97.4044,VALID,0,VALID,21.2811,VALID,337,VALID,0.220703,
2010-05-05, 03:19:05,VALID,914.575,VALID,0,VALID,97.4044,VALID,0,VALID,21.3022,VALID,337,VALID,0.111719,
2010-05-05, 03:20:05,VALID,914.574,VALID,0,VALID,97.3968,VALID,0,VALID,21.3006,VALID,337,VALID,0,
2010-05-05, 03:21:05,VALID,914.591,VALID,0,VALID,97.4044,VALID,0,VALID,21.3006,VALID,337,VALID,0.212891,
2010-05-05, 03:22:05,VALID,914.645,VALID,0,VALID,97.3968,VALID,0,VALID,21.3396,VALID,337,VALID,0.314063,
2010-05-05, 03:23:05,VALID,914.63,VALID,0,VALID,97.3968,VALID,0,VALID,21.3803,VALID,337,VALID,0.3375,
2010-05-05, 03:24:05,VALID,914.659,VALID,0,VALID,97.4044,VALID,0,VALID,21.3591,VALID,337,VALID,0.157813,
2010-05-05, 03:25:05,VALID,914.675,VALID,0,VALID,97.412,VALID,0,VALID,21.3786,VALID,337,VALID,0.0742188,
2010-05-05, 03:26:05,VALID,914.694,VALID,0,VALID,97.3815,VALID,0,VALID,21.3786,VALID,337,VALID,0,
2010-05-05, 03:27:05,VALID,914.692,VALID,0,VALID,97.412,VALID,0,VALID,21.3591,VALID,337,VALID,0.221484,
2010-05-05, 03:28:05,VALID,914.675,VALID,0,VALID,97.412,VALID,0,VALID,21.3608,VALID,337,VALID,0.253906,
2010-05-05, 03:29:05,VALID,914.623,VALID,0,VALID,97.3968,VALID,0.107441,VALID,21.3201,VALID,337,VALID,0.059375,
2010-05-05, 03:30:05,VALID,914.639,VALID,0,VALID,97.4044,VALID,0,VALID,21.3412,VALID,337,VALID,0.201172,
2010-05-05, 03:31:05,VALID,914.619,VALID,0,VALID,97.4196,VALID,0.107441,VALID,21.3396,VALID,337,VALID,0.358984,
2010-05-05, 03:32:05,VALID,914.623,VALID,0,VALID,97.3968,VALID,0,VALID,21.3006,VALID,337,VALID,0.495703,
2010-05-05, 03:33:05,VALID,914.613,VALID,0,VALID,97.3968,VALID,0,VALID,21.2421,VALID,337,VALID,0.707422,
2010-05-05, 03:34:05,VALID,914.604,VALID,0,VALID,97.412,VALID,0.107441,VALID,21.2031,VALID,337,VALID,0.978516,
2010-05-05, 03:35:05,VALID,914.624,VALID,0,VALID,97.4044,VALID,0,VALID,21.1624,VALID,337,VALID,0.826563,
2010-05-05, 03:36:05,VALID,914.591,VALID,0,VALID,97.412,VALID,0,VALID,21.164,VALID,337,VALID,0.805859,
2010-05-05, 03:37:05,VALID,914.594,VALID,0,VALID,97.3968,VALID,0,VALID,21.1836,VALID,337,VALID,0.798828,
2010-05-05, 03:38:05,VALID,914.598,VALID,0,VALID,97.4273,VALID,0,VALID,21.1836,VALID,337,VALID,0.660156,
2010-05-05, 03:39:05,VALID,914.556,VALID,0,VALID,97.4196,VALID,0,VALID,21.1836,VALID,337,VALID,0.632813,
2010-05-05, 03:40:05,VALID,914.549,VALID,0,VALID,97.4501,VALID,0,VALID,21.1836,VALID,38,VALID,0.786719,
2010-05-05, 03:41:05,VALID,914.517,VALID,0,VALID,97.4273,VALID,0,VALID,21.1836,VALID,129,VALID,0.623438,
2010-05-05, 03:42:05,VALID,914.498,VALID,0,VALID,97.4501,VALID,0,VALID,21.2047,VALID,129,VALID,0.616797,
2010-05-05, 03:43:05,VALID,914.481,VALID,0,VALID,97.412,VALID,0.107441,VALID,21.1836,VALID,129,VALID,0.195313,
2010-05-05, 03:44:05,VALID,914.504,VALID,0,VALID,97.4273,VALID,0,VALID,21.1836,VALID,129,VALID,0.601563,
2010-05-05, 03:45:05,VALID,914.525,VALID,0,VALID,97.4273,VALID,0,VALID,21.2031,VALID,129,VALID,0.105469,